Regional Weather Roundup
Issued by NWS

Home | Current Version | Previous Version | Text Only | Print | Product List | Glossary On
Versions: 1 2 3 4 5 6 7 8 9 10 11 12 13 14 15 16 17 18 19 20 21 22 23 24 25 26 27 28 29 30 31 32 33 34 35 36 37 38 39 40 41 42 43 44 45 46 47 48 49 50
875
ASUS43 KBIS 250631
RWRND
NORTH DAKOTA REGIONAL WEATHER ROUNDUP
NATIONAL WEATHER SERVICE EASTERN NORTH DAKOTA/GRAND FORKS ND
100 AM CDT WED APR 25 2018

  NOTE: "FAIR" INDICATES FEW OR NO CLOUDS BELOW 12,000 FEET WITH NO
  SIGNIFICANT WEATHER AND/OR OBSTRUCTIONS TO VISIBILITY.

NDZ001>003-009>011-017-250700-
...NORTHWEST NORTH DAKOTA...

CITY           SKY/WX    TMP DP  RH WIND       PRES   REMARKS
WILLISTON      FAIR      46  34  62 SW8       30.23F
6HR MIN TEMP:  45; 6HR MAX TEMP:  62;

MINOT          FAIR      48  22  35 SW8       30.23F
MINOT AFB      NOT AVBL
$$

NDZ018>021-031>035-040>046-250700-
...SOUTHWEST NORTH DAKOTA...

CITY           SKY/WX    TMP DP  RH WIND       PRES   REMARKS
BISMARCK       FAIR      39  27  62 SW6       30.32F WCI  35
DICKINSON      FAIR      38  27  64 SW12      30.28F WCI  30
GARRISON         N/A     35  26  69 S3        30.27F
HETTINGER      FAIR      32  26  78 CALM      30.35F
$$

NDZ004>008-012>016-024-026-027-054-250700-
...NORTHEAST NORTH DAKOTA...

CITY           SKY/WX    TMP DP  RH WIND       PRES   REMARKS
GRAND FORKS    FAIR      31  30  96 S7        30.29F WCI  24
GRAND FORKS AF NOT AVBL
DEVILS LAKE    FAIR      32  27  81 CALM      30.28F
$$

NDZ022-023-025-028>030-036>039-047>053-250700-
...SOUTHEAST NORTH DAKOTA...

CITY           SKY/WX    TMP DP  RH WIND       PRES   REMARKS
JAMESTOWN      FAIR      31  26  82 S6        30.31F WCI  25
FARGO          FAIR      32  27  81 CALM      30.32F
WAHPETON       FAIR      34  28  80 N6        30.32S WCI  29
$$




USA.gov is the U.S. government's official web portal to all federal, state and local government web resources and services.